Time,TemperatureF,DewpointF,PressureIn,WindDirection,WindDirectionDegrees,WindSpeedMPH,WindSpeedGustMPH,Humidity,HourlyPrecipIn,Conditions,Clouds,dailyrainin,SoftwareType,DateUTC
2013-01-10 00:09:00,36.9,32.2,30.43,SW,231,0.0,0.0,83,0.00,CLR,SKC,0.00,WeatherDisplay:10.37,2013-01-10 05:09:00,
2013-01-10 00:19:00,36.1,31.5,30.44,SW,231,0.0,0.0,83,0.00,CLR,SKC,0.00,WeatherDisplay:10.37,2013-01-10 05:19:00,
2013-01-10 00:29:00,36.3,32.0,30.44,SW,231,0.0,0.0,84,0.00,CLR,SKC,0.00,WeatherDisplay:10.37,2013-01-10 05:29:00,
2013-01-10 00:31:00,35.9,31.6,30.44,SW,231,0.0,0.0,84,0.00,CLR,SKC,0.00,WeatherDisplay:10.37,2013-01-10 05:31:00,
2013-01-10 00:40:00,35.8,31.4,30.45,SW,231,0.0,0.0,84,0.00,CLR,SKC,0.00,WeatherDisplay:10.37,2013-01-10 05:40:00,
2013-01-10 00:50:00,35.4,31.3,30.45,SW,231,0.0,0.0,85,0.00,CLR,SKC,0.00,WeatherDisplay:10.37,2013-01-10 05:50:00,
2013-01-10 01:00:00,35.1,31.3,30.45,SW,231,0.0,0.0,86,0.00,CLR,SKC,0.00,WeatherDisplay:10.37,2013-01-10 06:00:00,
2013-01-10 01:10:00,35.1,31.3,30.45,SW,231,0.0,0.0,86,0.00,CLR,SKC,0.00,WeatherDisplay:10.37,2013-01-10 06:10:00,
2013-01-10 01:20:00,35.5,31.4,30.44,SW,231,0.0,0.0,85,0.00,CLR,SKC,0.00,WeatherDisplay:10.37,2013-01-10 06:20:00,
2013-01-10 01:30:00,35.1,31.1,30.44,SW,231,0.0,0.0,85,0.00,CLR,SKC,0.00,WeatherDisplay:10.37,2013-01-10 06:30:00,
2013-01-10 01:40:00,35.0,30.9,30.44,SW,231,0.0,0.0,85,0.00,CLR,SKC,0.00,WeatherDisplay:10.37,2013-01-10 06:40:00,
2013-01-10 01:50:00,34.7,30.7,30.44,SW,231,0.0,0.0,85,0.00,CLR,SKC,0.00,WeatherDisplay:10.37,2013-01-10 06:50:00,
2013-01-10 02:00:00,34.7,30.6,30.44,SW,231,0.0,0.0,85,0.00,CLR,SKC,0.00,WeatherDisplay:10.37,2013-01-10 07:00:00,
2013-01-10 02:10:00,34.4,30.6,30.44,SW,231,0.0,0.0,86,0.00,CLR,SKC,0.00,WeatherDisplay:10.37,2013-01-10 07:10:00,
2013-01-10 02:20:00,33.3,30.1,30.44,SW,231,0.0,0.0,88,0.00,CLR,SKC,0.00,WeatherDisplay:10.37,2013-01-10 07:20:00,
2013-01-10 02:30:00,33.0,30.6,30.44,SW,231,0.0,0.0,91,0.00,CLR,SKC,0.00,WeatherDisplay:10.37,2013-01-10 07:30:00,
2013-01-10 02:40:00,33.1,30.2,30.44,SW,231,0.0,0.0,89,0.00,CLR,SKC,0.00,WeatherDisplay:10.37,2013-01-10 07:40:00,
2013-01-10 02:50:00,32.6,29.7,30.44,SW,231,0.0,0.0,89,0.00,CLR,SKC,0.00,WeatherDisplay:10.37,2013-01-10 07:50:00,
2013-01-10 03:00:00,32.4,29.8,30.44,SW,231,0.0,0.0,90,0.00,CLR,SKC,0.00,WeatherDisplay:10.37,2013-01-10 08:00:00,
2013-01-10 03:10:00,33.1,30.5,30.43,SW,231,0.0,0.0,90,0.00,CLR,SKC,0.00,WeatherDisplay:10.37,2013-01-10 08:10:00,
2013-01-10 03:20:00,32.0,29.1,30.43,SW,231,0.0,0.0,89,0.00,CLR,SKC,0.00,WeatherDisplay:10.37,2013-01-10 08:20:00,
2013-01-10 03:30:00,32.1,29.5,30.43,SW,231,0.0,0.0,90,0.00,CLR,SKC,0.00,WeatherDisplay:10.37,2013-01-10 08:30:00,
2013-01-10 03:40:00,32.0,29.7,30.43,SW,231,0.0,0.0,91,0.00,CLR,SKC,0.00,WeatherDisplay:10.37,2013-01-10 08:40:00,
2013-01-10 03:50:00,31.8,29.8,30.44,SW,231,0.0,0.0,92,0.00,CLR,SKC,0.00,WeatherDisplay:10.37,2013-01-10 08:50:00,
2013-01-10 04:00:00,31.8,29.5,30.44,SW,231,0.0,0.0,91,0.00,CLR,SKC,0.00,WeatherDisplay:10.37,2013-01-10 09:00:00,
2013-01-10 04:10:00,32.2,30.2,30.44,SW,231,0.0,0.0,92,0.00,CLR,SKC,0.00,WeatherDisplay:10.37,2013-01-10 09:10:00,
2013-01-10 04:20:00,31.4,29.4,30.43,SW,231,0.0,0.0,92,0.00,CLR,SKC,0.00,WeatherDisplay:10.37,2013-01-10 09:20:00,
2013-01-10 04:30:00,32.0,29.9,30.43,SW,231,0.0,0.0,92,0.00,CLR,SKC,0.00,WeatherDisplay:10.37,2013-01-10 09:30:00,
2013-01-10 04:40:00,31.7,29.7,30.43,SW,231,0.0,0.0,92,0.00,CLR,SKC,0.00,WeatherDisplay:10.37,2013-01-10 09:40:00,
2013-01-10 04:50:00,31.3,29.3,30.43,SW,231,0.0,0.0,92,0.00,CLR,SKC,0.00,WeatherDisplay:10.37,2013-01-10 09:50:00,
2013-01-10 05:00:00,31.4,29.9,30.43,SW,231,0.0,0.0,94,0.00,CLR,SKC,0.00,WeatherDisplay:10.37,2013-01-10 10:00:00,
2013-01-10 05:10:00,31.6,29.6,30.43,SW,231,0.0,0.0,92,0.00,CLR,SKC,0.00,WeatherDisplay:10.37,2013-01-10 10:10:00,
2013-01-10 05:20:00,31.5,29.2,30.43,SW,231,0.0,0.0,91,0.00,CLR,SKC,0.00,WeatherDisplay:10.37,2013-01-10 10:20:00,
2013-01-10 05:30:00,31.8,29.4,30.43,SW,231,0.0,0.0,91,0.00,CLR,SKC,0.00,WeatherDisplay:10.37,2013-01-10 10:30:00,
2013-01-10 05:40:00,31.3,29.0,30.42,SW,231,0.0,0.0,91,0.00,CLR,SKC,0.00,WeatherDisplay:10.37,2013-01-10 10:40:00,
2013-01-10 05:50:00,31.1,28.8,30.42,SW,231,0.0,0.0,91,0.00,CLR,SKC,0.00,WeatherDisplay:10.37,2013-01-10 10:50:00,
2013-01-10 06:00:00,31.2,28.6,30.43,SW,231,0.0,0.0,90,0.00,CLR,SKC,0.00,WeatherDisplay:10.37,2013-01-10 11:00:00,
2013-01-10 06:10:00,30.7,28.1,30.43,SW,231,0.0,0.0,90,0.00,CLR,SKC,0.00,WeatherDisplay:10.37,2013-01-10 11:10:00,
2013-01-10 06:20:00,31.1,28.6,30.43,SW,231,0.0,0.0,90,0.00,CLR,SKC,0.00,WeatherDisplay:10.37,2013-01-10 11:20:00,
2013-01-10 06:30:00,31.0,28.4,30.43,SW,231,0.0,0.0,90,0.00,CLR,SKC,0.00,WeatherDisplay:10.37,2013-01-10 11:30:00,
2013-01-10 06:40:00,31.2,28.7,30.44,SW,231,0.0,0.0,90,0.00,CLR,SKC,0.00,WeatherDisplay:10.37,2013-01-10 11:40:00,
2013-01-10 06:50:00,31.1,28.8,30.44,SW,231,0.0,0.0,91,0.00,CLR,SKC,0.00,WeatherDisplay:10.37,2013-01-10 11:50:00,
2013-01-10 07:00:00,31.1,29.1,30.44,SW,231,0.0,0.0,92,0.00,CLR,SKC,0.00,WeatherDisplay:10.37,2013-01-10 12:00:00,
2013-01-10 07:10:00,31.3,29.3,30.44,SW,231,0.0,0.0,92,0.00,CLR,SKC,0.00,WeatherDisplay:10.37,2013-01-10 12:10:00,
2013-01-10 07:20:00,31.5,28.9,30.45,SW,231,0.0,0.0,90,0.00,CLR,SKC,0.00,WeatherDisplay:10.37,2013-01-10 12:20:00,
2013-01-10 07:30:00,31.8,28.7,30.45,SW,231,0.0,0.0,88,0.00,CLR,SKC,0.00,WeatherDisplay:10.37,2013-01-10 12:30:00,
2013-01-10 07:40:00,32.1,28.7,30.45,SW,231,0.0,0.0,87,0.00,CLR,SKC,0.00,WeatherDisplay:10.37,2013-01-10 12:40:00,
2013-01-10 07:50:00,31.9,28.2,30.45,SW,231,0.0,0.0,86,0.00,CLR,SKC,0.00,WeatherDisplay:10.37,2013-01-10 12:50:00,
2013-01-10 08:00:00,31.8,27.8,30.45,SW,231,0.0,0.0,85,0.00,CLR,SKC,0.00,WeatherDisplay:10.37,2013-01-10 13:00:00,
2013-01-10 08:10:00,32.4,27.8,30.46,SW,231,0.0,0.0,83,0.00,CLR,SKC,0.00,WeatherDisplay:10.37,2013-01-10 13:10:00,
2013-01-10 08:20:00,32.6,28.3,30.46,SW,231,0.0,0.0,84,0.00,CLR,SKC,0.00,WeatherDisplay:10.37,2013-01-10 13:20:00,
2013-01-10 08:30:00,33.2,28.3,30.46,SSW,204,0.0,5.0,82,0.00,CLR,SKC,0.00,WeatherDisplay:10.37,2013-01-10 13:30:00,
2013-01-10 08:40:00,33.5,28.0,30.46,SSE,166,0.0,0.0,80,0.00,CLR,SKC,0.00,WeatherDisplay:10.37,2013-01-10 13:40:00,
2013-01-10 08:50:00,34.0,28.1,30.46,SSE,166,0.0,0.0,79,0.00,CLR,SKC,0.00,WeatherDisplay:10.37,2013-01-10 13:50:00,
2013-01-10 09:00:00,34.1,28.0,30.46,SSE,166,0.0,0.0,78,0.00,CLR,SKC,0.00,WeatherDisplay:10.37,2013-01-10 14:00:00,
2013-01-10 09:10:00,34.3,28.5,30.45,SSE,166,0.0,0.0,79,0.00,CLR,SKC,0.00,WeatherDisplay:10.37,2013-01-10 14:10:00,
2013-01-10 09:20:00,34.7,29.8,30.45,SE,140,7.0,10.0,82,0.00,CLR,SKC,0.00,WeatherDisplay:10.37,2013-01-10 14:20:00,
2013-01-10 09:30:00,34.2,28.7,30.45,SE,125,0.0,10.0,80,0.00,CLR,SKC,0.00,WeatherDisplay:10.37,2013-01-10 14:30:00,
2013-01-10 09:40:00,34.7,29.5,30.44,SE,128,7.0,10.0,81,0.00,CLR,SKC,0.00,WeatherDisplay:10.37,2013-01-10 14:40:00,
2013-01-10 09:50:00,35.3,30.0,30.44,ESE,123,5.0,11.0,81,0.00,CLR,SKC,0.00,WeatherDisplay:10.37,2013-01-10 14:50:00,
2013-01-10 10:00:00,35.7,29.2,30.44,ESE,122,5.0,13.0,77,0.00,CLR,SKC,0.00,WeatherDisplay:10.37,2013-01-10 15:00:00,
2013-01-10 10:10:00,36.0,29.5,30.45,SE,128,7.0,13.0,77,0.00,CLR,SKC,0.00,WeatherDisplay:10.37,2013-01-10 15:10:00,
2013-01-10 10:20:00,36.6,29.5,30.45,SE,143,9.0,13.0,75,0.00,CLR,SKC,0.00,WeatherDisplay:10.37,2013-01-10 15:20:00,
2013-01-10 10:30:00,36.7,29.6,30.45,SE,145,1.0,13.0,75,0.00,CLR,SKC,0.00,WeatherDisplay:10.37,2013-01-10 15:30:00,
2013-01-10 10:40:00,36.8,29.3,30.44,SE,136,9.0,14.0,74,0.00,CLR,SKC,0.00,WeatherDisplay:10.37,2013-01-10 15:40:00,
2013-01-10 10:50:00,37.8,30.3,30.43,SE,130,8.0,15.0,74,0.00,CLR,SKC,0.00,WeatherDisplay:10.37,2013-01-10 15:50:00,
2013-01-10 11:00:00,37.2,29.4,30.43,SE,133,6.0,16.0,73,0.00,CLR,SKC,0.00,WeatherDisplay:10.37,2013-01-10 16:00:00,
2013-01-10 11:10:00,37.6,29.4,30.43,SE,139,9.0,16.0,72,0.00,CLR,SKC,0.00,WeatherDisplay:10.37,2013-01-10 16:10:00,
2013-01-10 11:20:00,37.1,28.6,30.43,SE,143,13.0,18.0,71,0.00,CLR,SKC,0.00,WeatherDisplay:10.37,2013-01-10 16:20:00,
2013-01-10 11:30:00,36.8,28.7,30.42,SE,145,7.0,17.0,72,0.00,CLR,SKC,0.00,WeatherDisplay:10.37,2013-01-10 16:30:00,
2013-01-10 11:40:00,38.2,29.9,30.42,SE,141,8.0,16.0,72,0.00,CLR,SKC,0.00,WeatherDisplay:10.37,2013-01-10 16:40:00,
2013-01-10 11:50:00,37.8,29.3,30.41,SSE,156,8.0,14.0,71,0.00,CLR,SKC,0.00,WeatherDisplay:10.37,2013-01-10 16:50:00,
2013-01-10 12:00:00,38.4,30.2,30.41,SE,142,8.0,17.0,72,0.00,CLR,SKC,0.00,WeatherDisplay:10.37,2013-01-10 17:00:00,
2013-01-10 12:09:00,38.3,30.1,30.40,SSE,155,6.0,15.0,72,0.00,CLR,SKC,0.00,WeatherDisplay:10.37,2013-01-10 17:09:00,
2013-01-10 12:19:00,38.5,31.0,30.41,SSE,160,9.0,16.0,74,0.00,CLR,SKC,0.00,WeatherDisplay:10.37,2013-01-10 17:19:00,
2013-01-10 12:29:00,38.2,31.3,30.41,SSE,154,5.0,13.0,76,0.00,CLR,SKC,0.00,WeatherDisplay:10.37,2013-01-10 17:29:00,
2013-01-10 12:40:00,39.3,33.0,30.39,SSE,160,3.0,12.0,78,0.00,CLR,SKC,0.00,WeatherDisplay:10.37,2013-01-10 17:40:00,
2013-01-10 12:50:00,38.5,31.3,30.38,SSE,148,5.0,10.0,75,0.00,CLR,SKC,0.00,WeatherDisplay:10.37,2013-01-10 17:50:00,
2013-01-10 13:00:00,38.4,30.9,30.37,SSE,151,6.0,13.0,74,0.00,CLR,SKC,0.00,WeatherDisplay:10.37,2013-01-10 18:00:00,
2013-01-10 13:10:00,39.2,30.6,30.36,SSE,155,8.0,18.0,71,0.00,CLR,SKC,0.00,WeatherDisplay:10.37,2013-01-10 18:10:00,
2013-01-10 13:20:00,39.1,29.1,30.35,SSE,165,8.0,16.0,67,0.00,CLR,SKC,0.00,WeatherDisplay:10.37,2013-01-10 18:20:00,
2013-01-10 13:30:00,40.1,30.0,30.34,SSE,159,3.0,14.0,67,0.00,CLR,SKC,0.00,WeatherDisplay:10.37,2013-01-10 18:30:00,
2013-01-10 13:40:00,40.1,29.3,30.34,SSE,161,0.0,14.0,65,0.00,CLR,SKC,0.00,WeatherDisplay:10.37,2013-01-10 18:40:00,
2013-01-10 13:50:00,40.2,30.4,30.34,SE,138,1.0,14.0,68,0.00,CLR,SKC,0.00,WeatherDisplay:10.37,2013-01-10 18:50:00,
2013-01-10 14:00:00,40.0,30.6,30.33,SE,144,6.0,13.0,69,0.00,CLR,SKC,0.00,WeatherDisplay:10.37,2013-01-10 19:00:00,
2013-01-10 14:10:00,39.5,30.2,30.33,SE,142,5.0,14.0,69,0.00,CLR,SKC,0.00,WeatherDisplay:10.37,2013-01-10 19:10:00,
2013-01-10 14:20:00,39.6,30.9,30.32,SE,143,7.0,13.0,71,0.00,CLR,SKC,0.00,WeatherDisplay:10.37,2013-01-10 19:20:00,
2013-01-10 14:30:00,39.1,30.5,30.31,SSE,150,5.0,13.0,71,0.00,CLR,SKC,0.00,WeatherDisplay:10.37,2013-01-10 19:30:00,
2013-01-10 14:40:00,38.7,31.1,30.31,SE,143,9.0,13.0,74,0.00,CLR,SKC,0.00,WeatherDisplay:10.37,2013-01-10 19:40:00,
2013-01-10 14:50:00,38.5,31.6,30.30,SSE,151,7.0,14.0,76,0.00,CLR,SKC,0.00,WeatherDisplay:10.37,2013-01-10 19:50:00,
2013-01-10 15:00:00,38.6,31.7,30.30,SE,142,10.0,15.0,76,0.00,CLR,SKC,0.00,WeatherDisplay:10.37,2013-01-10 20:00:00,
2013-01-10 15:10:00,38.9,32.0,30.29,SE,144,6.0,14.0,76,0.00,CLR,SKC,0.00,WeatherDisplay:10.37,2013-01-10 20:10:00,
2013-01-10 15:20:00,38.6,30.7,30.29,SSE,149,5.0,17.0,73,0.00,CLR,SKC,0.00,WeatherDisplay:10.37,2013-01-10 20:20:00,
2013-01-10 15:40:00,39.2,31.6,30.29,SSE,147,6.0,11.0,74,0.00,CLR,SKC,0.00,WeatherDisplay:10.37,2013-01-10 20:40:00,
2013-01-10 15:50:00,39.2,31.2,30.28,SSE,150,8.0,13.0,73,0.00,CLR,SKC,0.00,WeatherDisplay:10.37,2013-01-10 20:50:00,
2013-01-10 16:00:00,38.7,31.1,30.28,SSE,148,3.0,14.0,74,0.00,CLR,SKC,0.00,WeatherDisplay:10.37,2013-01-10 21:00:00,
2013-01-10 16:10:00,39.2,31.0,30.28,SSE,150,2.0,14.0,72,0.00,CLR,SKC,0.00,WeatherDisplay:10.37,2013-01-10 21:10:00,
2013-01-10 16:20:00,38.9,30.6,30.28,SSE,152,8.0,14.0,72,0.00,CLR,SKC,0.00,WeatherDisplay:10.37,2013-01-10 21:20:00,
2013-01-10 16:30:00,39.0,30.7,30.27,SE,146,6.0,13.0,72,0.00,CLR,SKC,0.00,WeatherDisplay:10.37,2013-01-10 21:30:00,
2013-01-10 16:40:00,39.2,31.3,30.26,SE,146,9.0,15.0,73,0.00,CLR,SKC,0.00,WeatherDisplay:10.37,2013-01-10 21:40:00,
2013-01-10 16:50:00,38.5,31.5,30.27,SSE,158,8.0,21.0,76,0.00,CLR,SKC,0.00,WeatherDisplay:10.37,2013-01-10 21:50:00,
2013-01-10 17:00:00,38.7,31.8,30.26,SSE,167,8.0,14.0,76,0.00,CLR,SKC,0.00,WeatherDisplay:10.37,2013-01-10 22:00:00,
2013-01-10 17:10:00,39.1,32.8,30.25,SSE,160,8.0,15.0,78,0.00,CLR,SKC,0.00,WeatherDisplay:10.37,2013-01-10 22:10:00,
2013-01-10 17:20:00,38.2,32.5,30.25,SSE,168,7.0,13.0,80,0.00,CLR,SKC,0.00,WeatherDisplay:10.37,2013-01-10 22:20:00,
2013-01-10 17:30:00,38.1,32.8,30.25,SSE,168,7.0,13.0,81,0.00,CLR,SKC,0.00,WeatherDisplay:10.37,2013-01-10 22:30:00,
2013-01-10 17:40:00,38.3,33.2,30.25,SSE,167,9.0,16.0,82,0.00,CLR,SKC,0.00,WeatherDisplay:10.37,2013-01-10 22:40:00,
2013-01-10 17:50:00,38.0,33.3,30.24,SSE,162,7.0,14.0,83,0.00,CLR,SKC,0.00,WeatherDisplay:10.37,2013-01-10 22:50:00,
2013-01-10 18:00:00,37.8,32.5,30.23,SSE,167,9.0,12.0,81,0.00,CLR,SKC,0.00,WeatherDisplay:10.37,2013-01-10 23:00:00,
2013-01-10 18:10:00,38.6,33.5,30.23,SSE,155,9.0,15.0,82,0.00,CLR,SKC,0.00,WeatherDisplay:10.37,2013-01-10 23:10:00,
2013-01-10 18:20:00,38.8,33.2,30.21,SSE,148,7.0,12.0,80,0.00,CLR,SKC,0.00,WeatherDisplay:10.37,2013-01-10 23:20:00,
2013-01-10 18:30:00,38.4,32.1,30.21,SSE,155,7.0,14.0,78,0.00,CLR,SKC,0.00,WeatherDisplay:10.37,2013-01-10 23:30:00,
2013-01-10 18:40:00,38.9,32.0,30.21,SSE,164,8.0,14.0,76,0.00,CLR,SKC,0.00,WeatherDisplay:10.37,2013-01-10 23:40:00,
2013-01-10 18:50:00,38.8,30.9,30.21,SSE,162,9.0,15.0,73,0.00,CLR,SKC,0.00,WeatherDisplay:10.37,2013-01-10 23:50:00,
2013-01-10 19:00:00,39.1,31.2,30.20,SSE,165,6.0,14.0,73,0.00,CLR,SKC,0.00,WeatherDisplay:10.37,2013-01-11 00:00:00,
2013-01-10 19:10:00,39.3,31.0,30.20,SSE,165,2.0,17.0,72,0.00,CLR,SKC,0.00,WeatherDisplay:10.37,2013-01-11 00:10:00,
2013-01-10 19:20:00,39.4,30.1,30.20,SSE,167,7.0,16.0,69,0.00,CLR,SKC,0.00,WeatherDisplay:10.37,2013-01-11 00:20:00,
2013-01-10 19:30:00,39.8,30.1,30.19,SSE,162,1.0,14.0,68,0.00,CLR,SKC,0.00,WeatherDisplay:10.37,2013-01-11 00:30:00,
2013-01-10 19:40:00,40.3,30.5,30.18,SSE,163,7.0,16.0,68,0.00,CLR,SKC,0.00,WeatherDisplay:10.37,2013-01-11 00:40:00,
2013-01-10 19:50:00,40.3,29.9,30.17,SSE,163,1.0,16.0,66,0.00,CLR,SKC,0.00,WeatherDisplay:10.37,2013-01-11 00:50:00,
2013-01-10 20:10:00,40.6,29.3,30.16,SSE,163,7.0,13.0,64,0.00,CLR,SKC,0.00,WeatherDisplay:10.37,2013-01-11 01:10:00,
2013-01-10 20:20:00,41.2,30.0,30.16,SSE,164,6.0,13.0,64,0.00,CLR,SKC,0.00,WeatherDisplay:10.37,2013-01-11 01:20:00,
2013-01-10 20:30:00,40.7,29.1,30.15,South,169,3.0,13.0,63,0.00,CLR,SKC,0.00,WeatherDisplay:10.37,2013-01-11 01:30:00,
2013-01-10 20:40:00,41.3,28.9,30.14,South,171,7.0,18.0,61,0.00,CLR,SKC,0.00,WeatherDisplay:10.37,2013-01-11 01:40:00,
2013-01-10 20:50:00,41.0,29.4,30.13,SSE,167,9.0,15.0,63,0.00,CLR,SKC,0.00,WeatherDisplay:10.37,2013-01-11 01:50:00,
2013-01-10 21:00:00,41.4,30.1,30.12,SSE,166,6.0,16.0,64,0.00,CLR,SKC,0.00,WeatherDisplay:10.37,2013-01-11 02:00:00,
2013-01-10 21:10:00,41.2,29.1,30.13,South,183,8.0,16.0,62,0.00,CLR,SKC,0.00,WeatherDisplay:10.37,2013-01-11 02:10:00,
2013-01-10 21:20:00,41.3,29.3,30.12,South,172,6.0,13.0,62,0.00,CLR,SKC,0.00,WeatherDisplay:10.37,2013-01-11 02:20:00,
2013-01-10 21:30:00,41.8,30.1,30.11,SSE,155,8.0,13.0,63,0.00,CLR,SKC,0.00,WeatherDisplay:10.37,2013-01-11 02:30:00,
2013-01-10 21:40:00,41.4,29.7,30.10,SSE,155,10.0,16.0,63,0.00,CLR,SKC,0.00,WeatherDisplay:10.37,2013-01-11 02:40:00,
2013-01-10 21:50:00,41.7,30.8,30.09,SSE,164,9.0,15.0,65,0.00,CLR,SKC,0.00,WeatherDisplay:10.37,2013-01-11 02:50:00,
2013-01-10 22:00:00,42.2,31.6,30.09,SSE,160,6.0,16.0,66,0.00,CLR,SKC,0.00,WeatherDisplay:10.37,2013-01-11 03:00:00,
2013-01-10 22:10:00,41.9,31.3,30.08,SSE,156,8.0,13.0,66,0.00,CLR,SKC,0.00,WeatherDisplay:10.37,2013-01-11 03:10:00,
2013-01-10 22:20:00,41.5,30.6,30.08,SSE,158,6.0,14.0,65,0.00,CLR,SKC,0.00,WeatherDisplay:10.37,2013-01-11 03:20:00,
2013-01-10 22:30:00,42.3,32.1,30.06,SSE,157,2.0,13.0,67,0.00,CLR,SKC,0.00,WeatherDisplay:10.37,2013-01-11 03:30:00,
2013-01-10 22:40:00,41.7,30.1,30.06,South,169,8.0,16.0,63,0.00,CLR,SKC,0.00,WeatherDisplay:10.37,2013-01-11 03:40:00,
2013-01-10 22:50:00,42.1,30.0,30.05,SSE,165,6.0,14.0,62,0.00,CLR,SKC,0.00,WeatherDisplay:10.37,2013-01-11 03:50:00,
2013-01-10 23:00:00,43.0,30.4,30.05,SSE,168,7.0,14.0,61,0.00,CLR,SKC,0.00,WeatherDisplay:10.37,2013-01-11 04:00:00,
2013-01-10 23:10:00,43.0,30.0,30.04,South,171,3.0,11.0,60,0.00,CLR,SKC,0.00,WeatherDisplay:10.37,2013-01-11 04:10:00,
2013-01-10 23:20:00,42.3,29.0,30.04,South,173,6.0,13.0,59,0.00,CLR,SKC,0.00,WeatherDisplay:10.37,2013-01-11 04:20:00,
2013-01-10 23:30:00,43.3,28.6,30.03,South,174,1.0,12.0,56,0.00,CLR,SKC,0.00,WeatherDisplay:10.37,2013-01-11 04:30:00,
2013-01-10 23:50:00,44.1,28.5,30.03,SSE,168,2.0,12.0,54,0.00,CLR,SKC,0.00,WeatherDisplay:10.37,2013-01-11 04:50:00,